Location: Foulognes
(49.1413°N, 0.8183°W)
Time: 23:40:45
(UTC+00:00)

STARLINK-80 - Pass Details

Date: 21 October 2019
Orbit: 494 x 496 km, 53.0° (Epoch: 13 November)

Event Time Altitude Azimuth Distance (km) Brightness Sun altitude
Rises 17:26:27 0° 280° (W) 2,582 8.6 -4.7°
Reaches altitude 10° 17:28:42 10° 287° (WNW) 1,699 7.3 -5.0°
Maximum altitude 17:32:24 45° 1° (N) 684 4.0 -5.6°
Drops below altitude 10° 17:36:07 10° 76° (ENE) 1,696 5.4 -6.2°
Enters shadow 17:36:31 - 78° (ENE) 1,854 5.6 -6.3°
